When you browse on this site, cookies collect data to enhance your experience and personalize the content and advertising you see.
Visit our Privacy Policy to learn more. By continuing to use the site, you agree to this use of cookies and data.
  • In United Kingdom
  • List of Countries
  • For 7 days
  • Water Temperature
  • Weather Map
  • Weather Widgets
  • user-avatar
    Login

    Hourly Weather Maslakhat

    Today, 26 May, Tuesday

    Time Temperature Precipitation Wind Pressure Humidity
    00:00 +30°C° 0 mm 2 mps 726 mmHg 26%
    01:00 +30°C° 0 mm 2 mps 726 mmHg 28%
    02:00 +29°C° 0 mm 3 mps 725 mmHg 31%
    03:00 +28°C° 0 mm 3 mps 725 mmHg 30%
    04:00 +28°C° 0 mm 3 mps 725 mmHg 29%
    05:00 +27°C° 0 mm 3 mps 726 mmHg 30%
    06:00 +29°C° 0 mm 3 mps 726 mmHg 27%
    07:00 +31°C° 0 mm 3 mps 726 mmHg 24%
    08:00 +35°C° 0 mm 3 mps 726 mmHg 21%
    09:00 +37°C° 0 mm 3 mps 726 mmHg 19%
    10:00 +38°C° 0 mm 3 mps 726 mmHg 17%
    11:00 +40°C° 0 mm 3 mps 726 mmHg 14%
    12:00 +42°C° 0 mm 3 mps 726 mmHg 13%
    13:00 +43°C° 0 mm 3 mps 725 mmHg 11%
    14:00 +44°C° 0 mm 3 mps 725 mmHg 9%
    15:00 +44°C° 0 mm 3 mps 725 mmHg 9%
    16:00 +44°C° 0 mm 3 mps 725 mmHg 9%
    17:00 +43°C° 0 mm 2 mps 725 mmHg 9%
    18:00 +41°C° 0 mm 2 mps 725 mmHg 11%
    19:00 +39°C° 0 mm 1 mps 725 mmHg 13%
    20:00 +35°C° 0 mm 1 mps 725 mmHg 15%
    21:00 +34°C° 0 mm 1 mps 725 mmHg 18%
    22:00 +33°C° 0 mm 1 mps 725 mmHg 20%
    23:00 +32°C° 0 mm 2 mps 725 mmHg 22%

    Tomorrow, 27 May, Wednesday

    Time Temperature Precipitation Wind Pressure Humidity
    00:00 +31°C° 0 mm 2 mps 725 mmHg 24%
    01:00 +30°C° 0 mm 2 mps 724 mmHg 27%
    02:00 +29°C° 0 mm 2 mps 724 mmHg 29%
    03:00 +28°C° 0 mm 2 mps 724 mmHg 29%
    04:00 +28°C° 0 mm 2 mps 724 mmHg 29%
    05:00 +28°C° 0 mm 2 mps 724 mmHg 30%
    06:00 +30°C° 0 mm 3 mps 724 mmHg 27%
    07:00 +33°C° 0 mm 3 mps 724 mmHg 24%
    08:00 +35°C° 0 mm 3 mps 725 mmHg 22%
    09:00 +37°C° 0 mm 3 mps 724 mmHg 20%
    10:00 +39°C° 0 mm 2 mps 724 mmHg 18%
    11:00 +41°C° 0 mm 2 mps 724 mmHg 16%
    12:00 +41°C° 0 mm 2 mps 724 mmHg 15%
    13:00 +42°C° 0 mm 2 mps 724 mmHg 13%
    14:00 +43°C° 0 mm 1 mps 723 mmHg 11%
    15:00 +43°C° 0 mm 1 mps 723 mmHg 11%
    16:00 +43°C° 0 mm 2 mps 723 mmHg 10%
    17:00 +43°C° 0 mm 2 mps 723 mmHg 10%
    18:00 +42°C° 0 mm 4 mps 723 mmHg 14%
    19:00 +39°C° 0 mm 5 mps 723 mmHg 18%
    20:00 +35°C° 0 mm 7 mps 723 mmHg 22%
    21:00 +34°C° 0 mm 6 mps 723 mmHg 25%
    22:00 +32°C° 0 mm 5 mps 723 mmHg 28%
    23:00 +30°C° 0 mm 4 mps 723 mmHg 30%

    Day after tomorrow, 28 May, Thursday

    Time Temperature Precipitation Wind Pressure Humidity
    00:00 +29°C° 0.1 mm 4 mps 723 mmHg 34%
    01:00 +29°C° 0.1 mm 3 mps 723 mmHg 37%
    02:00 +28°C° 0.1 mm 3 mps 722 mmHg 40%
    03:00 +27°C° 0.1 mm 3 mps 722 mmHg 42%
    04:00 +27°C° 0.1 mm 3 mps 722 mmHg 44%
    05:00 +26°C° 0.1 mm 2 mps 722 mmHg 46%
    06:00 +28°C° 0.1 mm 2 mps 722 mmHg 42%
    07:00 +29°C° 0.1 mm 2 mps 722 mmHg 37%
    08:00 +31°C° 0.1 mm 2 mps 722 mmHg 33%
    09:00 +34°C° 0 mm 2 mps 722 mmHg 29%
    10:00 +36°C° 0 mm 2 mps 722 mmHg 25%
    11:00 +37°C° 0 mm 1 mps 722 mmHg 22%
    12:00 +39°C° 0 mm 1 mps 722 mmHg 20%
    13:00 +40°C° 0 mm 1 mps 722 mmHg 18%
    14:00 +41°C° 0 mm 1 mps 721 mmHg 16%
    15:00 +41°C° 0 mm 1 mps 721 mmHg 15%
    16:00 +41°C° 0 mm 1 mps 721 mmHg 14%
    17:00 +41°C° 0 mm 1 mps 721 mmHg 13%
    18:00 +39°C° 0 mm 2 mps 722 mmHg 17%
    19:00 +37°C° 0 mm 2 mps 722 mmHg 20%
    20:00 +35°C° 0 mm 3 mps 722 mmHg 23%
    21:00 +33°C° 0.2 mm 3 mps 722 mmHg 27%
    22:00 +31°C° 0.2 mm 3 mps 722 mmHg 30%
    23:00 +29°C° 0.2 mm 3 mps 722 mmHg 34%

    29 May, Friday

    Time Temperature Precipitation Wind Pressure Humidity
    00:00 +29°C° 0.1 mm 3 mps 722 mmHg 38%
    01:00 +28°C° 0.1 mm 3 mps 722 mmHg 43%
    02:00 +27°C° 0.1 mm 3 mps 721 mmHg 47%
    03:00 +26°C° 0 mm 3 mps 721 mmHg 48%
    04:00 +26°C° 0 mm 3 mps 721 mmHg 48%
    05:00 +26°C° 0 mm 2 mps 721 mmHg 48%
    06:00 +27°C° 0 mm 3 mps 721 mmHg 43%
    07:00 +29°C° 0 mm 3 mps 722 mmHg 39%
    08:00 +31°C° 0 mm 3 mps 722 mmHg 34%
    09:00 +34°C° 0 mm 3 mps 722 mmHg 30%
    10:00 +35°C° 0 mm 3 mps 722 mmHg 26%
    11:00 +37°C° 0 mm 3 mps 722 mmHg 22%
    12:00 +38°C° 0 mm 3 mps 722 mmHg 19%
    13:00 +39°C° 0 mm 3 mps 722 mmHg 17%
    14:00 +40°C° 0 mm 3 mps 722 mmHg 15%
    15:00 +41°C° 0 mm 4 mps 722 mmHg 14%
    16:00 +41°C° 0 mm 4 mps 722 mmHg 13%
    17:00 +41°C° 0 mm 5 mps 722 mmHg 12%
    18:00 +36°C° 0 mm 5 mps 722 mmHg 21%
    19:00 +33°C° 0 mm 5 mps 722 mmHg 30%
    20:00 +28°C° 0 mm 5 mps 723 mmHg 39%
    21:00 +27°C° 0 mm 4 mps 723 mmHg 41%
    22:00 +27°C° 0 mm 4 mps 723 mmHg 42%
    23:00 +26°C° 0 mm 4 mps 723 mmHg 44%

    30 May, Saturday

    Time Temperature Precipitation Wind Pressure Humidity
    00:00 +26°C° 0 mm 3 mps 723 mmHg 44%
    01:00 +25°C° 0 mm 3 mps 722 mmHg 45%
    02:00 +25°C° 0 mm 2 mps 722 mmHg 45%
    03:00 +24°C° 0 mm 2 mps 722 mmHg 46%
    04:00 +24°C° 0 mm 2 mps 722 mmHg 47%
    05:00 +23°C° 0 mm 1 mps 722 mmHg 48%
    06:00 +25°C° 0 mm 1 mps 722 mmHg 43%
    07:00 +27°C° 0 mm 1 mps 722 mmHg 38%
    08:00 +29°C° 0 mm 1 mps 723 mmHg 33%
    09:00 +31°C° 0 mm 1 mps 723 mmHg 29%
    10:00 +33°C° 0 mm 1 mps 723 mmHg 25%
    11:00 +35°C° 0 mm 1 mps 723 mmHg 21%
    12:00 +36°C° 0 mm 1 mps 723 mmHg 18%
    13:00 +39°C° 0 mm 1 mps 723 mmHg 15%
    14:00 +40°C° 0 mm 1 mps 723 mmHg 12%
    15:00 +40°C° 0 mm 1 mps 723 mmHg 11%
    16:00 +40°C° 0 mm 1 mps 723 mmHg 10%
    17:00 +40°C° 0 mm 2 mps 723 mmHg 9%
    18:00 +38°C° 0 mm 2 mps 723 mmHg 13%
    19:00 +35°C° 0 mm 3 mps 724 mmHg 16%
    20:00 +33°C° 0 mm 4 mps 724 mmHg 20%
    21:00 +32°C° 0 mm 4 mps 724 mmHg 24%
    22:00 +29°C° 0 mm 4 mps 724 mmHg 29%
    23:00 +28°C° 0 mm 4 mps 724 mmHg 33%

    31 May, Sunday

    Time Temperature Precipitation Wind Pressure Humidity
    00:00 +28°C° 0 mm 3 mps 724 mmHg 33%
    01:00 +27°C° 0 mm 2 mps 724 mmHg 33%
    02:00 +27°C° 0 mm 2 mps 724 mmHg 33%
    03:00 +26°C° 0 mm 2 mps 724 mmHg 34%
    04:00 +25°C° 0 mm 2 mps 724 mmHg 34%
    05:00 +25°C° 0 mm 2 mps 724 mmHg 34%
    06:00 +27°C° 0 mm 2 mps 724 mmHg 30%
    07:00 +29°C° 0 mm 2 mps 724 mmHg 26%
    08:00 +31°C° 0 mm 3 mps 725 mmHg 22%
    09:00 +34°C° 0 mm 3 mps 725 mmHg 19%
    10:00 +36°C° 0 mm 3 mps 725 mmHg 17%
    11:00 +38°C° 0 mm 2 mps 725 mmHg 15%
    12:00 +39°C° 0 mm 2 mps 724 mmHg 14%
    13:00 +40°C° 0 mm 2 mps 724 mmHg 12%
    14:00 +41°C° 0 mm 2 mps 724 mmHg 11%
    15:00 +41°C° 0 mm 2 mps 724 mmHg 10%
    16:00 +41°C° 0 mm 2 mps 724 mmHg 10%
    17:00 +41°C° 0 mm 2 mps 723 mmHg 10%
    18:00 +39°C° 0 mm 2 mps 724 mmHg 12%
    19:00 +37°C° 0 mm 2 mps 724 mmHg 14%
    20:00 +34°C° 0 mm 1 mps 724 mmHg 16%
    21:00 +32°C° 0 mm 2 mps 723 mmHg 18%
    22:00 +31°C° 0 mm 2 mps 723 mmHg 20%
    23:00 +30°C° 0 mm 3 mps 723 mmHg 23%
    Show more